Simultaneous Nadir Overpasses (SNOs) Predictions

Prediction of SNOs between AQUA and NOAA-19 Satellite Orbit:

Table of predicted SNOs for the next 14.0 days since TLE Epoch: 10/10/2020
Index Date (AQUA) Time (AQUA) Lat,Lon (AQUA) SZA (AQUA ) Date (NOAA-19) Time (NOAA-19) Lat,Lon (NOAA-19) SZA (NOAA-19 ) Distance(km) Time Diff (sec)
1 10/10/2020 03:48:14 79.25, 97.83 86.75 10/10/2020 03:47:10 79.19, 94.00 87.01 79.86 64
2 10/10/2020 04:37:47 -79.49, -96.16 92.90 10/10/2020 04:37:59 -79.49, -96.01 92.92 3.11 12
3 10/12/2020 10:11:29 79.46, 0.64 87.89 10/12/2020 10:11:16 79.46, 0.48 87.90 3.25 13
4 10/12/2020 11:01:00 -79.62, 167.15 91.87 10/12/2020 11:02:07 -79.69, 170.17 92.03 60.79 67
5 10/14/2020 15:45:12 -79.45, 97.25 91.31 10/14/2020 15:44:30 -79.47, 97.38 91.29 3.22 42
6 10/14/2020 16:34:39 79.48, -95.29 88.75 10/14/2020 16:35:30 79.48, -95.25 88.73 0.80 51
7 10/16/2020 21:18:54 79.43,-166.01 89.47 10/16/2020 21:17:46 79.43,-166.20 89.51 3.94 68
8 10/16/2020 22:08:22 -79.47, 1.31 90.45 10/16/2020 22:08:46 -79.45, 1.25 90.48 2.60 24
9 10/19/2020 03:42:04 79.45, 98.02 90.32 10/19/2020 03:42:00 79.46, 98.05 90.32 0.59 4
10 10/21/2020 09:15:47 -79.45,-165.40 88.89 10/21/2020 09:15:17 -79.43,-165.38 88.90 2.19 30
11 10/21/2020 10:05:13 79.44, 2.30 91.11 10/21/2020 10:06:14 79.48, 2.30 91.13 3.68 61
12 10/23/2020 14:49:29 79.44, -68.74 91.87 10/23/2020 14:48:30 79.43, -68.67 91.87 2.02 59
